TimeEDT,TemperatureF,Dew PointF,Humidity,Sea Level PressureIn,VisibilityMPH,Wind Direction,Wind SpeedMPH,Gust SpeedMPH,PrecipitationIn,Events,Conditions,WindDirDegrees,DateUTC
12:51 AM,57.0,54.0,89,30.05,7.0,SE,4.6,-,N/A,,Overcast,140,2013-04-30 04:51:00
1:51 AM,57.0,54.0,89,30.05,5.0,SE,4.6,-,N/A,,Overcast,130,2013-04-30 05:51:00
2:51 AM,55.0,53.1,93,30.06,8.0,Calm,Calm,-,N/A,,Scattered Clouds,0,2013-04-30 06:51:00
3:51 AM,54.0,51.1,90,30.06,8.0,Calm,Calm,-,N/A,,Clear,0,2013-04-30 07:51:00
4:51 AM,53.1,51.1,93,30.08,10.0,Calm,Calm,-,N/A,,Partly Cloudy,0,2013-04-30 08:51:00
5:51 AM,52.0,50.0,93,30.09,8.0,ESE,4.6,-,N/A,,Partly Cloudy,110,2013-04-30 09:51:00
6:51 AM,53.1,50.0,89,30.11,7.0,ESE,3.5,-,N/A,,Partly Cloudy,120,2013-04-30 10:51:00
7:51 AM,54.0,50.0,86,30.13,10.0,ESE,4.6,-,N/A,,Partly Cloudy,110,2013-04-30 11:51:00
8:51 AM,57.9,50.0,75,30.13,10.0,SE,11.5,-,N/A,,Scattered Clouds,130,2013-04-30 12:51:00
9:51 AM,60.1,50.0,69,30.14,10.0,ESE,10.4,-,N/A,,Scattered Clouds,120,2013-04-30 13:51:00
10:51 AM,63.0,51.1,65,30.14,10.0,SE,10.4,-,N/A,,Scattered Clouds,130,2013-04-30 14:51:00
11:51 AM,64.9,51.1,61,30.15,10.0,ESE,8.1,-,N/A,,Scattered Clouds,120,2013-04-30 15:51:00
12:51 PM,68.0,51.1,55,30.14,10.0,Variable,5.8,-,N/A,,Mostly Cloudy,0,2013-04-30 16:51:00
1:51 PM,69.8,51.8,53,30.13,10.0,ESE,10.4,-,N/A,,Mostly Cloudy,120,2013-04-30 17:51:00
2:51 PM,71.1,51.1,49,30.14,10.0,East,5.8,16.1,N/A,,Mostly Cloudy,90,2013-04-30 18:51:00
3:51 PM,70.0,48.9,47,30.13,10.0,ESE,8.1,-,N/A,,Mostly Cloudy,110,2013-04-30 19:51:00
4:51 PM,72.0,50.0,46,30.12,10.0,ESE,12.7,18.4,N/A,,Mostly Cloudy,120,2013-04-30 20:51:00
5:51 PM,72.0,50.0,46,30.12,10.0,ESE,12.7,-,N/A,,Mostly Cloudy,120,2013-04-30 21:51:00
6:51 PM,70.0,48.9,47,30.12,10.0,ESE,15.0,-,N/A,,Mostly Cloudy,110,2013-04-30 22:51:00
7:51 PM,66.9,48.0,51,30.14,10.0,ESE,12.7,-,N/A,,Partly Cloudy,110,2013-04-30 23:51:00
8:51 PM,64.9,48.0,54,30.14,10.0,SE,12.7,-,N/A,,Partly Cloudy,140,2013-05-01 00:51:00
9:51 PM,62.1,48.0,60,30.19,10.0,ESE,13.8,-,N/A,,Clear,120,2013-05-01 01:51:00
10:51 PM,60.1,48.0,64,30.20,10.0,SE,10.4,-,N/A,,Clear,130,2013-05-01 02:51:00
11:51 PM,59.0,48.0,67,30.20,10.0,SE,8.1,-,N/A,,Clear,130,2013-05-01 03:51:00